sat.trackr.live / text

‹ back to catalog

ONEWEB-0603

NORAD 54667 · 2022-166AB

PAYLOAD ACTIVE UNKNOWN

§ Identity

Operator
Country
UK
Launch date
2022-12-08
Launch site
AFETR
Launch vehicle
Mass (kg)
RCS (m²)

Purposes: comms

External: N2YO · Heavens-Above · Gunter

§ Orbital elements

Epoch: 2026-09-20T03:43:50.924928Z

Period
108.94 min
Inclination
87.9288°
Eccentricity
0.0002159
Mean motion
13.21824118 rev/d
Perigee alt
1,176.1 km
Apogee alt
1,179.4 km
Semi-major
7,555.9 km
B*
6.2199e-5
RAAN
225.0611°
Arg perigee
79.5380°
Mean anomaly
280.5997°
Rev number
18,402

§ Raw data

ONEWEB-06031 54667U 22166AB  26263.15545052  .00000039  00000+0  62199-4 0  99932 54667  87.9288 225.0611 0002159  79.5380 280.5997 13.21824118184024

JSON: /api/v1/satellites/54667 · /tle

For live sub-satellite position, see the globe view (requires WebGL).

§ Visibility from observer

Set your observer location to see the next 7 days of passes ≥ 10°. The values pass through the URL so the page stays shareable.

No JS? Fill the form by hand. The geolocation button needs JavaScript.